Imperial, NE

2:41 AM MDT on April 21, 2018 (GMT -0600)
Imperial Municipal

Weather History for KIML - June, 2012

Change the Weather History Date:

Tuesday, June 19, 2012

  Actual Average Record
Temperature  
Mean Temperature 86 °F 71 °F  
Max Temperature 99 °F 85 °F 106 °F (1899)
Min Temperature 72 °F 57 °F 40 °F (1906)
Degree Days  
Heating Degree Days 0 1  
Month to date heating degree days 2 29  
Since 1 June heating degree days 2 29  
Cooling Degree Days 21 7  
Month to date cooling degree days 204 93  
Year to date cooling degree days 281 137  
Since 1 June cooling degree days 204 93  
Growing Degree Days 36 (Base 50)    
Moisture  
Dew Point 57 °F    
Average Humidity 45    
Maximum Humidity 68    
Minimum Humidity 22    
Precipitation  
Precipitation 0.00 in 0.10 in 1.72 in (1970)
Sea Level Pressure  
Sea Level Pressure 29.45 in    
Wind  
Wind Speed 14 mph (SSE)    
Max Wind Speed 29 mph    
Max Gust Speed 38 mph    
Visibility 10 miles    
Events      
T = Trace of Precipitation, MM = Missing Value Source: NWS Daily Summary

Daily Weather History Graph

Daily Weather History Graph

Search for Another Location

Airport or City:

Astronomy

Jun. 19, 2012 Rise Set
Actual Time 5:15 AM MDT 8:20 PM MDT
Civil Twilight 4:42 AM MDT 8:53 PM MDT
Nautical Twilight 4:00 AM MDT 9:35 PM MDT
Astronomical Twilight 3:10 AM MDT 10:25 PM MDT
Moon 5:22 AM MDT (6/19) 8:25 PM MDT (6/19)
Length of Visible Light 16h 10m
Length of Day
15h 04m
New Moon, 0% of the Moon is Illuminated
Jun 19
New Moon
Jun 26
First Quarter
Jul 3
Full
Jul 10
Last Quarter
Jul 18
New

Hourly Weather History & Observations

Time (MDT) Temp. Heat Index Dew Point Humidity Pressure Visibility Wind Dir Wind Speed Gust Speed Precip Events Conditions
12:53 AM 81.0 °F 81.7 °F 61.0 °F 50% 29.40 in 10.0 mi South 21.9 mph 36.8 mph N/A   Clear
1:53 AM 79.0 °F - 62.1 °F 56% 29.39 in 10.0 mi South 21.9 mph 34.5 mph N/A   Clear
2:53 AM 77.0 °F - 62.1 °F 60% 29.39 in 10.0 mi South 18.4 mph 28.8 mph N/A   Clear
3:53 AM 75.0 °F - 62.1 °F 64% 29.40 in 10.0 mi South 13.8 mph - N/A   Clear
4:53 AM 73.0 °F - 62.1 °F 68% 29.41 in 10.0 mi South 11.5 mph - N/A   Clear
5:53 AM 73.0 °F - 61.0 °F 66% 29.41 in 10.0 mi South 12.7 mph - N/A   Clear
6:53 AM 73.9 °F - 62.1 °F 66% 29.42 in 10.0 mi South 13.8 mph - N/A   Clear
7:53 AM 78.1 °F - 60.1 °F 54% 29.44 in 10.0 mi SSW 16.1 mph - N/A   Clear
8:53 AM 82.0 °F 81.2 °F 53.1 °F 37% 29.44 in 10.0 mi WNW 10.4 mph - N/A   Clear
9:53 AM 86.0 °F - 48.0 °F 27% 29.46 in 10.0 mi NNW 9.2 mph - N/A   Clear
10:53 AM 89.1 °F 86.7 °F 53.1 °F 29% 29.48 in 10.0 mi NNW 10.4 mph - N/A   Clear
11:53 AM 91.0 °F 88.9 °F 55.0 °F 29% 29.50 in 10.0 mi North 13.8 mph - N/A   Clear
12:53 PM 93.9 °F 91.4 °F 53.1 °F 25% 29.49 in 10.0 mi North 13.8 mph 20.7 mph N/A   Clear
1:53 PM 95.0 °F 92.5 °F 53.1 °F 24% 29.49 in 10.0 mi NNE 11.5 mph - N/A   Clear
2:53 PM 97.0 °F 94.6 °F 54.0 °F 23% 29.48 in 10.0 mi NNE 11.5 mph 19.6 mph N/A   Clear
3:53 PM 98.1 °F 96.1 °F 54.0 °F 23% 29.47 in 10.0 mi NNE 10.4 mph - N/A   Clear
4:53 PM 99.0 °F 96.5 °F 53.1 °F 21% 29.46 in 10.0 mi Variable 6.9 mph - N/A   Clear
5:53 PM 98.1 °F 96.4 °F 55.9 °F 24% 29.43 in 10.0 mi NE 8.1 mph - N/A   Clear
6:53 PM 96.1 °F 95.2 °F 57.9 °F 28% 29.42 in 10.0 mi East 5.8 mph - N/A   Clear
7:53 PM 93.0 °F 91.4 °F 55.9 °F 29% 29.42 in 10.0 mi South 13.8 mph - N/A   Clear
8:00 PM 93.2 °F 91.3 °F 55.4 °F 28% 29.56 in 10.0 mi SSE 16.1 mph - N/A   Clear
8:53 PM 90.0 °F 89.1 °F 59.0 °F 35% 29.43 in 10.0 mi SSE 20.7 mph 31.1 mph N/A   Clear
9:53 PM 87.1 °F 86.7 °F 60.1 °F 40% 29.44 in 10.0 mi SSE 23.0 mph 29.9 mph N/A   Clear
10:53 PM 84.9 °F 85.0 °F 61.0 °F 44% 29.45 in 10.0 mi South 23.0 mph 38.0 mph N/A   Clear
11:53 PM 82.0 °F 83.0 °F 62.1 °F 51% 29.45 in 10.0 mi South 17.3 mph 28.8 mph N/A   Clear